Regional Weather Roundup
Issued by NWS

Home | Current Version | Previous Version | Graphics & Text | Print | Product List | Glossary On
Versions: 1 2 3 4 5 6 7 8 9 10 11 12 13 14 15 16 17 18 19 20 21 22 23 24 25 26 27 28 29 30 31 32 33 34 35 36 37 38 39 40 41 42 43 44 45 46 47 48 49 50
197
ASUS43 KMKX 281511
RWRWI

WISCONSIN REGIONAL WEATHER ROUNDUP
NATIONAL WEATHER SERVICE MILWAUKEE/SULLIVAN WI
1000 AM CDT TUE MAR 28 2017

NOTE: "FAIR" INDICATES FEW OR NO CLOUDS BELOW 12,000 FEET WITH NO
SIGNIFICANT WEATHER AND/OR OBSTRUCTIONS TO VISIBILITY.

WIZ001-002-006>008-014>016-023>028-281600-
NORTHWEST WISCONSIN

CITY           SKY/WX    TMP DP  RH WIND       PRES   REMARKS
SUPERIOR ARPT  SUNNY     42  35  79 CALM      30.17R
ASHLAND        SUNNY     43  34  70 CALM      30.17R
HAYWARD        SUNNY     45  29  53 E3        30.15R
SIREN          SUNNY     44  32  63 CALM      30.15S
CUMBERLAND     SUNNY     43  32  65 CALM      30.14R
RICE LAKE      SUNNY     41  34  75 CALM      30.16S
CHETEK         SUNNY     42  35  74 CALM      30.16R
LADYSMITH      SUNNY     44  36  73 SE5       30.16S
EAU CLAIRE     FOG       32  32 100 CALM      30.16R VSB 1/4
MENOMONIE      SUNNY     40  35  83 CALM      30.16R
NEW RICHMOND   SUNNY     47  37  67 SE3       30.15R
OSCEOLA        SUNNY     45  38  76 CALM      30.18R
$$

WIZ003>005-009-010-017-018-281600-
NORTH CENTRAL WISCONSIN

CITY           SKY/WX    TMP DP  RH WIND       PRES   REMARKS
MANITOWISH WTR SUNNY     43  30  61 CALM      30.14R
ARBOR VITAE    SUNNY     43  33  68 CALM      30.13R
WOODRUFF       SUNNY     43  33  68 CALM      30.13R
RHINELANDER    SUNNY     42  33  70 E6        30.14R
EAGLE RIVER    SUNNY     43  31  62 E5        30.13S
LAND O LAKES   SUNNY     44  32  63 E3        30.15S
PHILLIPS       SUNNY     40  32  72 CALM      30.14S
TOMAHAWK       SUNNY     40  32  71 CALM      30.16R
MEDFORD        SUNNY     39  36  88 E3        30.14R
MERRILL        SUNNY     38  35  91 CALM      30.15R
$$

WIZ029-030-035-036-043>047-281600-
CENTRAL WISCONSIN

CITY           SKY/WX    TMP DP  RH WIND       PRES   REMARKS
WAUSAU         SUNNY     39  35  86 NW3       30.13R
MOSINEE        MOSUNNY   37  37 100 CALM      30.16R
MARSHFIELD     FOG       36  35  96 CALM      30.14R VSB 1/2
STEVENS POINT  MOSUNNY   42  35  75 NE3       30.15R
WAUPACA        SUNNY     47  38  70 N6        30.15S
WAUTOMA        MOSUNNY   45  36  70 CALM      30.15R
WISC RAPIDS    MOSUNNY   42  36  79 CALM      30.16R
CAMP DOUGLAS   PTSUNNY   45  37  76 NE7       30.14R
$$

WIZ011>013-019>022-031-037>040-048>050-281600-
NORTHEAST WISCONSIN

CITY           SKY/WX    TMP DP  RH WIND       PRES   REMARKS
ANTIGO         SUNNY     37  37 100 N6        30.14R WCI  32
SHAWANO        SUNNY     43  35  75 NE3       30.16R
OCONTO         SUNNY     38  33  80 E6        30.16R WCI  34
STURGEON BAY   FOG       33  33 100 E5        30.14R VSB 1/2 WCI  29
GREEN BAY      SUNNY     43  37  79 NE8       30.15R
MANITOWOC      PTSUNNY   41  35  79 VRB7      30.15R
APPLETON       PTSUNNY   43  39  87 N7        30.12S
CLINTONVILLE   SUNNY     43  34  70 NE5       30.14S
OSHKOSH        SUNNY     44  36  73 NE6       30.13S
$$

WIZ032>034-041-042-053>061-281600-
SOUTHWEST WISCONSIN

CITY           SKY/WX    TMP DP  RH WIND       PRES   REMARKS
LA CROSSE      FOG       38  38 100 W3        30.16R VSB 1/2
SPARTA         MOSUNNY   46  38  73 E6        30.15S
VIROQUA        CLOUDY    44  38  79 NE7       30.12S
BOSCOBEL       CLOUDY    45  41  86 NE3       30.15R
PRAIRIE DU CHI CLOUDY    46  42  86 E5        30.14R
PLATTEVILLE    CLOUDY    44  43  98 NE12      30.13R
$$

WIZ056-057-062-063-064-067-068-281600-
SOUTH CENTRAL WISCONSIN

CITY           SKY/WX    TMP DP  RH WIND       PRES   REMARKS
REEDSBURG      CLOUDY    43  38  82 NE6       30.14R
BARABOO/DELLS  CLOUDY    42  36  79 NE8       30.14R
LONE ROCK      CLOUDY    45  37  73 E7        30.14R
MINERAL POINT  CLOUDY    43  43 100 E8        30.12S
MADISON        PTSUNNY   44  36  73 NE10      30.13R
MIDDLETON      CLOUDY    43  39  84 E8        30.14R
WATERTOWN      CLOUDY    43  38  82 N6        30.13R
MONROE         CLOUDY    41  37  87 NE9       30.12R
JANESVILLE     CLOUDY    43  37  81 NE9       30.13R
$$

WIZ051-052-058>065-066-070>072-281600-
SOUTHEAST WISCONSIN

CITY           SKY/WX    TMP DP  RH WIND       PRES   REMARKS
MILWAUKEE      CLOUDY    42  35  76 N14       30.12R
WAUKESHA       CLOUDY    39  34  81 N3        30.13R
MILWAUKEE/TIMM CLOUDY    43  36  75 N7        30.13R
RACINE         CLOUDY    41  37  86 N15G21    30.13R
KENOSHA        CLOUDY    41  37  86 NE9       30.12R
FOND DU LAC    SUNNY     43  35  73 NE8       30.14R
SHEBOYGAN      MOSUNNY   42  36  79 NE9       30.13R
WEST BEND      SUNNY     45  36  70 NE9       30.11S
JUNEAU         MOSUNNY   43  36  75 N8        30.14R
$$

LSZ147-162-281600-
LAKE SUPERIOR

STATION/POSITION TIME  TEMP    WIND        PRES    WAVE
                       AIR SEA DIR/SP/G            HT/PER
                 (UTC) (F)     (DEG/KT/KT) (MB)    (FT/S)
DEVILS ISLAND    1500   38     200/  7/  8 1021.8F
PORT WING        1440   39     290/  3/  4 1021.3S
SAXON HARBOR     1440   42     310/  3/  4 1021.0R
$$

LMZ867-665-643>646-281600-
LAKE MICHIGAN

STATION/POSITION TIME  TEMP    WIND        PRES    WAVE
                       AIR SEA DIR/SP/G            HT/PER
                 (UTC) (F)     (DEG/KT/KT) (MB)    (FT/S)
CHAMBERS ISLAND  1440   31      40/  4/  6 1021.0R
NORTHPORT PIER   1440   33      60/  6/  8 1021.3R
SISTER BAY       1406   34      10/  7/  9   N/A
KEWAUNEE LAKESHO 1448   34      50/  7/ 11 1020.7R
SHEBOYGAN LAKESH 1500   35      20/ 13/ 15 1021.1R
PORT WASHINGTON  1440   40      50/ 13/ 16 1021.0S
MILWAUKEE LAKESH 1450   39      20/ 17/ 19   N/A
KENOSHA   LAKESH 1500   39      20/ 12/ 14 1020.0
$$

TC  - TEMPERATURE IN CELSIUS
VSB - VISIBILITY IN STATUTE MILES
WCI - WIND CHILL INDEX
HX  - HEAT INDEX





USA.gov is the U.S. government's official web portal to all federal, state and local government web resources and services.